Back to catalog

SL-8 R/B

AlivePO
NORAD 12139·ROCKET BODY·🇷🇺 Russia

Launched Jan 16, 1981 from Plesetsk Cosmodrome

Loading…

Next Passes (next 24 hours)

TLE

FreshSource: Space-Track

Epoch: Sep 14, 2026, 08:09 UTC

1 12139U 81003B   26257.33969850  .00010818  00000-0  25409-3 0  9994
2 12139  82.9343 114.7538 0239235 238.9266 118.8295 15.17182250343226

Track SL-8 R/B in real time with AllMySat

Download on the App Store